Вернуться в каталог

KUIPER-00596

АктивенСвязьLEO
NORAD 69281·PAYLOAD·🇺🇸 United States

Запущен May 29, 2026 с Vandenberg Space Force Base

Loading…

Ближайшие Пролёты (ближайшие 24 часа)

TLE

СвежийSource: CelesTrak SupGP

Эпоха: Sep 14, 2026, 19:45 UTC

1 69281C 26118Q   26257.82304398  .00008018  00000+0  10497-2 0  2579
2 69281  51.9027   9.3000 0000454 100.2634 133.8863 14.79921794    19

Отслеживайте KUIPER-00596 в реальном времени с AllMySat

Download on the App Store